HISPASAT 30W-5          
1 37264U 10070A   19265.47966132 -.00000224  00000-0  00000+0 0  9999
2 37264   0.0407 117.9950 0005354  54.3442 331.4262  1.00270688 32004
KOREASAT 6              
1 37265U 10070B   19265.52918580 -.00000370  00000-0  00000+0 0  9992
2 37265   0.0294  93.3849 0001633 126.5186  87.7224  1.00272089 32024
ARIANE 5 R/B            
1 37266U 10070C   19266.16930245  .00000846  00000-0  36992-3 0  9996
2 37266   3.6074 284.9308 7161854  69.9602 349.7832  2.42822899 75558